Weather in Krasnoye Selo

Russia / Saint-Petersburg and Leningrad Oblast     59°43′58″N   30°05′16″E
temp.,
°C
wind,
m/s
gust,
m/s
humid.,
%
clouds,
%
prec.,
mm/h
press.,
hPa
HPBL,
m
17 september, fri
fri1700:00+3ene2285100 0.0 102214
03:00+2ne119076 0.0 102311
06:00+2e1192100 0.0 102310
09:00+5e35765 0.0 1023234
12:00+10ene455773 0.0 10231427
15:00+10ne455127 0.1 10231417
18:00+8ene47615 0.0 1024588
21:00+4ene23905 0.0 102556
18 september, sat
sat1800:00+3ese118976 0.0 102612
03:00+6ene117499 0.0 102617
06:00+6ene247499 0.0 1027120
09:00+6e36765 0.0 1027249
12:00+11e465510 0.0 10271241
15:00+11ene454895 0.0 10271689
18:00+9ne6964100 0.0 1026799
21:00+7ene4973100 0.0 1027406
19 september, sun
sun1900:00+4ene3982100 0.0 1028281
03:00+2ene3989100 0.0 1028259
06:00+2ene3984100 0.0 1028294
09:00+4ene51170100 0.0 1029463
12:00+8e6855100 0.0 1028924
15:00+10ene6849100 0.0 10281321
18:00+8ene5957100 0.0 1027909
21:00+4ene31174100 0.0 1028288
20 september, mon
mon2000:00+5ene51275100 0.0 1029448
03:00+3ene51282100 0.0 1029401
06:00+2ene4128812 0.0 1029392
09:00+4ene611745 0.0 1029569
12:00+7ene79525 0.0 10281062
15:00+9ene78485 0.0 10271275
18:00+7ene69585 0.0 10261000
21:00+4ene4126951 0.0 1026457
21 september, tue
tue2100:00+3ene4117824 0.0 1025346
03:00+2ne4118595 0.0 1024336
06:00+2ne4128384 0.0 1022463
09:00+5ene51174100 0.0 1021570
12:00+4ene51089100 0.3 1020576
15:00+4ene5996100 1.5 1019613
18:00+4ene4995100 0.2 1018587
21:00+4ene4897100 1.0 1018436